Time,TemperatureF,DewpointF,PressureIn,WindDirection,WindDirectionDegrees,WindSpeedMPH,WindSpeedGustMPH,Humidity,HourlyPrecipIn,Conditions,Clouds,dailyrainin,SolarRadiationWatts/m^2,SoftwareType,DateUTC
2013-04-29 00:03:00,43.0,39.0,-100.00,NW,304,1.0,2.0,87,0.00,,,0.00,0.000000,,2013-04-29 04:03:00,
2013-04-29 00:13:00,43.0,39.0,-100.00,NW,304,1.0,2.0,87,0.00,,,0.00,0.000000,,2013-04-29 04:13:00,
2013-04-29 00:23:00,43.0,39.0,-100.00,NW,304,1.0,2.0,87,0.00,,,0.00,0.000000,,2013-04-29 04:23:00,
2013-04-29 00:52:00,43.0,38.0,-100.00,NNW,330,1.0,3.0,84,0.00,,,0.00,0.000000,,2013-04-29 04:52:00,
2013-04-29 01:02:00,43.0,38.0,-100.00,NNW,330,1.0,3.0,84,0.00,,,0.00,0.000000,,2013-04-29 05:02:00,
2013-04-29 01:12:00,43.0,38.0,-100.00,NNW,330,1.0,3.0,84,0.00,,,0.00,0.000000,,2013-04-29 05:12:00,
2013-04-29 01:22:00,43.0,38.0,-100.00,NNW,330,1.0,3.0,84,0.00,,,0.00,0.000000,,2013-04-29 05:22:00,
2013-04-29 01:52:00,42.0,38.0,-100.00,NW,314,1.0,2.0,86,0.00,,,0.00,0.000000,,2013-04-29 05:52:00,
2013-04-29 02:02:00,42.0,38.0,-100.00,NW,314,1.0,2.0,86,0.00,,,0.00,0.000000,,2013-04-29 06:02:00,
2013-04-29 02:12:00,42.0,38.0,-100.00,NW,314,1.0,2.0,86,0.00,,,0.00,0.000000,,2013-04-29 06:12:00,
2013-04-29 02:22:00,42.0,38.0,-100.00,NW,314,1.0,2.0,86,0.00,,,0.00,0.000000,,2013-04-29 06:22:00,
2013-04-29 02:52:00,41.0,37.0,-100.00,NNW,333,2.0,2.0,87,0.00,,,0.00,0.000000,,2013-04-29 06:52:00,
2013-04-29 03:02:00,41.0,37.0,-100.00,NNW,333,2.0,2.0,87,0.00,,,0.00,0.000000,,2013-04-29 07:02:00,
2013-04-29 03:11:00,41.0,37.0,-100.00,NNW,333,2.0,2.0,87,0.00,,,0.00,0.000000,,2013-04-29 07:11:00,
2013-04-29 03:22:00,41.0,37.0,-100.00,NNW,333,2.0,2.0,87,0.00,,,0.00,0.000000,,2013-04-29 07:22:00,
2013-04-29 03:52:00,40.0,36.0,-100.00,NW,304,2.0,2.0,87,0.00,,,0.00,0.000000,,2013-04-29 07:52:00,
2013-04-29 04:03:00,40.0,36.0,-100.00,NW,304,2.0,2.0,87,0.00,,,0.00,0.000000,,2013-04-29 08:03:00,
2013-04-29 04:11:00,40.0,36.0,-100.00,NW,304,2.0,2.0,87,0.00,,,0.00,0.000000,,2013-04-29 08:11:00,
2013-04-29 04:22:00,40.0,36.0,-100.00,NW,304,2.0,2.0,87,0.00,,,0.00,0.000000,,2013-04-29 08:22:00,
2013-04-29 04:52:00,39.0,36.0,-100.00,WNW,296,2.0,2.0,88,0.00,,,0.00,0.000000,,2013-04-29 08:52:00,
2013-04-29 05:01:00,39.0,36.0,-100.00,WNW,296,2.0,2.0,88,0.00,,,0.00,0.000000,,2013-04-29 09:01:00,
2013-04-29 05:12:00,39.0,36.0,-100.00,WNW,296,2.0,2.0,88,0.00,,,0.00,0.000000,,2013-04-29 09:12:00,
2013-04-29 05:21:00,39.0,36.0,-100.00,WNW,296,2.0,2.0,88,0.00,,,0.00,0.000000,,2013-04-29 09:21:00,
2013-04-29 05:53:00,38.0,35.0,-100.00,NW,317,2.0,3.0,89,0.00,,,0.00,0.000000,,2013-04-29 09:53:00,
2013-04-29 06:03:00,38.0,35.0,-100.00,NW,317,2.0,3.0,89,0.00,,,0.00,0.000000,,2013-04-29 10:03:00,
2013-04-29 06:12:00,38.0,35.0,-100.00,NW,317,2.0,3.0,89,0.00,,,0.00,0.000000,,2013-04-29 10:12:00,
2013-04-29 06:23:00,38.0,35.0,-100.00,NW,317,2.0,3.0,89,0.00,,,0.00,0.000000,,2013-04-29 10:23:00,
2013-04-29 06:52:00,38.0,35.0,-100.00,NW,312,2.0,2.0,89,0.00,,,0.00,17.000000,,2013-04-29 10:52:00,
2013-04-29 07:03:00,38.0,35.0,-100.00,NW,312,2.0,2.0,89,0.00,,,0.00,17.000000,,2013-04-29 11:03:00,
2013-04-29 07:12:00,38.0,35.0,-100.00,NW,312,2.0,2.0,89,0.00,,,0.00,17.000000,,2013-04-29 11:12:00,
2013-04-29 07:22:00,38.0,35.0,-100.00,NW,312,2.0,2.0,89,0.00,,,0.00,17.000000,,2013-04-29 11:22:00,
2013-04-29 07:52:00,50.0,41.0,-100.00,ESE,108,1.0,2.0,72,0.00,,,0.00,169.000000,,2013-04-29 11:52:00,
2013-04-29 08:01:00,50.0,41.0,-100.00,ESE,108,1.0,2.0,72,0.00,,,0.00,169.000000,,2013-04-29 12:01:00,
2013-04-29 08:12:00,50.0,41.0,-100.00,ESE,108,1.0,2.0,72,0.00,,,0.00,169.000000,,2013-04-29 12:12:00,
2013-04-29 08:22:00,50.0,41.0,-100.00,ESE,108,1.0,2.0,72,0.00,,,0.00,169.000000,,2013-04-29 12:22:00,
2013-04-29 08:52:00,50.0,39.0,-100.00,SE,146,2.0,4.0,67,0.00,,,0.00,203.000000,,2013-04-29 12:52:00,
2013-04-29 09:01:00,50.0,39.0,-100.00,SE,146,2.0,4.0,67,0.00,,,0.00,203.000000,,2013-04-29 13:01:00,
2013-04-29 09:11:00,50.0,39.0,-100.00,SE,146,2.0,4.0,67,0.00,,,0.00,203.000000,,2013-04-29 13:11:00,
2013-04-29 09:21:00,50.0,39.0,-100.00,SE,146,2.0,4.0,67,0.00,,,0.00,203.000000,,2013-04-29 13:21:00,
2013-04-29 09:52:00,57.0,47.0,-100.00,East,90,2.0,5.0,68,0.00,,,0.00,353.000000,,2013-04-29 13:52:00,
2013-04-29 10:02:00,57.0,47.0,-100.00,East,90,2.0,5.0,68,0.00,,,0.00,353.000000,,2013-04-29 14:02:00,
2013-04-29 10:12:00,57.0,47.0,-100.00,East,90,2.0,5.0,68,0.00,,,0.00,353.000000,,2013-04-29 14:12:00,
2013-04-29 10:21:00,57.0,47.0,-100.00,East,90,2.0,5.0,68,0.00,,,0.00,353.000000,,2013-04-29 14:21:00,
2013-04-29 10:52:00,56.0,47.0,-100.00,SE,132,6.0,9.0,73,0.00,,,0.00,631.000000,,2013-04-29 14:52:00,
2013-04-29 11:01:00,56.0,47.0,-100.00,SE,132,6.0,9.0,73,0.00,,,0.00,631.000000,,2013-04-29 15:01:00,
2013-04-29 11:12:00,56.0,47.0,-100.00,SE,132,6.0,9.0,73,0.00,,,0.00,631.000000,,2013-04-29 15:12:00,
2013-04-29 11:22:00,56.0,47.0,-100.00,SE,132,6.0,9.0,73,0.00,,,0.00,631.000000,,2013-04-29 15:22:00,
2013-04-29 11:53:00,55.0,49.0,-100.00,SE,131,7.0,12.0,79,0.00,,,0.00,687.000000,,2013-04-29 15:53:00,
2013-04-29 12:03:00,55.0,49.0,-100.00,SE,131,7.0,12.0,79,0.00,,,0.00,687.000000,,2013-04-29 16:03:00,
2013-04-29 12:13:00,55.0,49.0,-100.00,SE,131,7.0,12.0,79,0.00,,,0.00,687.000000,,2013-04-29 16:13:00,
2013-04-29 12:23:00,55.0,49.0,-100.00,SE,131,7.0,12.0,79,0.00,,,0.00,687.000000,,2013-04-29 16:23:00,
2013-04-29 12:52:00,56.0,48.0,-100.00,SE,141,7.0,14.0,75,0.00,,,0.00,798.000000,,2013-04-29 16:52:00,
2013-04-29 13:02:00,56.0,48.0,-100.00,SE,141,7.0,14.0,75,0.00,,,0.00,798.000000,,2013-04-29 17:02:00,
2013-04-29 13:12:00,56.0,48.0,-100.00,SE,141,7.0,14.0,75,0.00,,,0.00,798.000000,,2013-04-29 17:12:00,
2013-04-29 13:22:00,56.0,48.0,-100.00,SE,141,7.0,14.0,75,0.00,,,0.00,798.000000,,2013-04-29 17:22:00,
2013-04-29 13:52:00,58.0,47.0,-100.00,SE,140,8.0,14.0,68,0.00,,,0.00,844.000000,,2013-04-29 17:52:00,
2013-04-29 14:01:00,58.0,47.0,-100.00,SE,140,8.0,14.0,68,0.00,,,0.00,844.000000,,2013-04-29 18:01:00,
2013-04-29 14:13:00,58.0,47.0,-100.00,SE,140,8.0,14.0,68,0.00,,,0.00,844.000000,,2013-04-29 18:13:00,
2013-04-29 14:22:00,58.0,47.0,-100.00,SE,140,8.0,14.0,68,0.00,,,0.00,844.000000,,2013-04-29 18:22:00,
2013-04-29 14:52:00,59.0,46.0,-100.00,SE,134,8.0,15.0,62,0.00,,,0.00,848.000000,,2013-04-29 18:52:00,
2013-04-29 15:01:00,59.0,46.0,-100.00,SE,134,8.0,15.0,62,0.00,,,0.00,848.000000,,2013-04-29 19:01:00,
2013-04-29 15:12:00,59.0,46.0,-100.00,SE,134,8.0,15.0,62,0.00,,,0.00,848.000000,,2013-04-29 19:12:00,
2013-04-29 15:22:00,59.0,46.0,-100.00,SE,134,8.0,15.0,62,0.00,,,0.00,848.000000,,2013-04-29 19:22:00,
2013-04-29 15:52:00,59.0,44.0,-100.00,SSE,151,7.0,14.0,58,0.00,,,0.00,687.000000,,2013-04-29 19:52:00,
2013-04-29 16:02:00,59.0,44.0,-100.00,SSE,151,7.0,14.0,58,0.00,,,0.00,687.000000,,2013-04-29 20:02:00,
2013-04-29 16:12:00,59.0,44.0,-100.00,SSE,151,7.0,14.0,58,0.00,,,0.00,687.000000,,2013-04-29 20:12:00,
2013-04-29 16:22:00,59.0,44.0,-100.00,SSE,151,7.0,14.0,58,0.00,,,0.00,687.000000,,2013-04-29 20:22:00,
2013-04-29 16:52:00,61.0,41.0,-100.00,SE,146,6.0,11.0,48,0.00,,,0.00,584.000000,,2013-04-29 20:52:00,
2013-04-29 17:02:00,61.0,41.0,-100.00,SE,146,6.0,11.0,48,0.00,,,0.00,584.000000,,2013-04-29 21:02:00,
2013-04-29 17:11:00,61.0,41.0,-100.00,SE,146,6.0,11.0,48,0.00,,,0.00,584.000000,,2013-04-29 21:11:00,
2013-04-29 17:22:00,61.0,41.0,-100.00,SE,146,6.0,11.0,48,0.00,,,0.00,584.000000,,2013-04-29 21:22:00,
2013-04-29 17:53:00,60.0,41.0,-100.00,SE,142,5.0,12.0,49,0.00,,,0.00,405.000000,,2013-04-29 21:53:00,
2013-04-29 18:02:00,60.0,41.0,-100.00,SE,142,5.0,12.0,49,0.00,,,0.00,405.000000,,2013-04-29 22:02:00,
2013-04-29 18:13:00,60.0,41.0,-100.00,SE,142,5.0,12.0,49,0.00,,,0.00,405.000000,,2013-04-29 22:13:00,
2013-04-29 18:23:00,60.0,41.0,-100.00,SE,142,5.0,12.0,49,0.00,,,0.00,405.000000,,2013-04-29 22:23:00,
2013-04-29 18:53:00,57.0,39.0,-100.00,SE,139,5.0,10.0,50,0.00,,,0.00,238.000000,,2013-04-29 22:53:00,
2013-04-29 19:02:00,57.0,39.0,-100.00,SE,139,5.0,10.0,50,0.00,,,0.00,238.000000,,2013-04-29 23:02:00,
2013-04-29 19:12:00,57.0,39.0,-100.00,SE,139,5.0,10.0,50,0.00,,,0.00,238.000000,,2013-04-29 23:12:00,
2013-04-29 19:22:00,57.0,39.0,-100.00,SE,139,5.0,10.0,50,0.00,,,0.00,238.000000,,2013-04-29 23:22:00,
2013-04-29 19:53:00,51.0,40.0,-100.00,SE,128,3.0,11.0,65,0.00,,,0.00,38.000000,,2013-04-29 23:53:00,
2013-04-29 20:01:00,51.0,40.0,-100.00,SE,128,3.0,11.0,65,0.00,,,0.00,38.000000,,2013-04-30 00:01:00,
2013-04-29 20:11:00,51.0,40.0,-100.00,SE,128,3.0,11.0,65,0.00,,,0.00,38.000000,,2013-04-30 00:11:00,
2013-04-29 20:21:00,51.0,40.0,-100.00,SE,128,3.0,11.0,65,0.00,,,0.00,38.000000,,2013-04-30 00:21:00,
2013-04-29 21:52:00,46.0,41.0,-100.00,SSE,148,1.0,4.0,83,-99.99,,,0.00,0.000000,,2013-04-30 01:52:00,
2013-04-29 22:01:00,46.0,41.0,-100.00,SSE,148,1.0,4.0,83,-99.99,,,0.00,0.000000,,2013-04-30 02:01:00,
2013-04-29 22:11:00,46.0,41.0,-100.00,SSE,148,1.0,4.0,83,-99.99,,,0.00,0.000000,,2013-04-30 02:11:00,
2013-04-29 22:21:00,46.0,41.0,-100.00,SSE,148,1.0,4.0,83,-99.99,,,0.00,0.000000,,2013-04-30 02:21:00,